SCO96RA EGPH-EGAA

Flight info

Callsign SCO96RA
Flight time 0h 43m
Altitude 18000
Route TLA DCT TRN P600 BLACA DCT BELZU
Aircraft AT76/M-SDFGIRY/S

Departure

Time 2026-05-06 23:14
Airport Edinburgh Airport (EGPH)

Arrival

Time 2026-05-06 23:57
Airport Belfast International Airport (EGAA)
Time Latitude Longitude Altitude Speed Heading
2026-05-06 22:25 55.94607 -3.36846 105 ft 0 kts 269°
2026-05-06 22:26 55.94607 -3.36847 111 ft 0 kts 269°
2026-05-06 22:28 55.94657 -3.36613 111 ft 0 kts 89°
2026-05-06 23:00 55.94657 -3.36628 111 ft 4 kts 86°
2026-05-06 23:00 55.94653 -3.36675 112 ft 4 kts 71°
2026-05-06 23:01 55.94641 -3.36716 112 ft 4 kts 42°
2026-05-06 23:01 55.94622 -3.36734 113 ft 1 kts 359°
2026-05-06 23:06 55.94634 -3.36734 112 ft 5 kts 359°
2026-05-06 23:07 55.94690 -3.36735 113 ft 10 kts 360°
2026-05-06 23:07 55.94767 -3.36759 110 ft 12 kts 326°
2026-05-06 23:07 55.94854 -3.36778 113 ft 14 kts 357°
2026-05-06 23:07 55.94943 -3.36829 112 ft 12 kts 14°
2026-05-06 23:08 55.94982 -3.36731 111 ft 11 kts 58°
2026-05-06 23:08 55.95023 -3.36610 112 ft 12 kts 59°
2026-05-06 23:08 55.95069 -3.36475 112 ft 13 kts 58°
2026-05-06 23:08 55.95117 -3.36333 112 ft 14 kts 59°
2026-05-06 23:09 55.95166 -3.36183 112 ft 14 kts 59°
2026-05-06 23:09 55.95217 -3.36030 112 ft 14 kts 60°
2026-05-06 23:09 55.95268 -3.35875 112 ft 15 kts 59°
2026-05-06 23:09 55.95321 -3.35723 111 ft 15 kts 58°
2026-05-06 23:10 55.95375 -3.35566 113 ft 15 kts 59°
2026-05-06 23:10 55.95430 -3.35415 113 ft 14 kts 43°
2026-05-06 23:10 55.95494 -3.35434 112 ft 0 kts 328°
2026-05-06 23:12 55.95496 -3.35435 112 ft 2 kts 328°
2026-05-06 23:12 55.95529 -3.35472 111 ft 9 kts 328°
2026-05-06 23:12 55.95573 -3.35557 109 ft 7 kts 245°
2026-05-06 23:12 55.95567 -3.35574 109 ft 0 kts 239°
2026-05-06 23:13 55.95525 -3.35695 108 ft 39 kts 237°
2026-05-06 23:13 55.95266 -3.36440 108 ft 98 kts 236°
2026-05-06 23:13 55.94857 -3.37664 298 ft 121 kts 237°
2026-05-06 23:14 55.94420 -3.38979 767 ft 125 kts 236°
2026-05-06 23:14 55.93955 -3.40348 1224 ft 132 kts 234°
2026-05-06 23:14 55.93433 -3.41739 1700 ft 138 kts 233°
2026-05-06 23:14 55.92891 -3.43189 2205 ft 142 kts 233°
2026-05-06 23:15 55.92332 -3.44664 2483 ft 154 kts 233°
2026-05-06 23:15 55.91709 -3.46443 2510 ft 181 kts 237°
2026-05-06 23:15 55.91069 -3.48407 2861 ft 184 kts 238°
2026-05-06 23:15 55.90429 -3.50395 3278 ft 185 kts 239°
2026-05-06 23:16 55.89794 -3.52390 3694 ft 185 kts 240°
2026-05-06 23:16 55.89141 -3.54377 4110 ft 185 kts 232°
2026-05-06 23:16 55.88078 -3.55489 4484 ft 183 kts 183°
2026-05-06 23:16 55.86828 -3.55238 4798 ft 183 kts 167°
2026-05-06 23:17 55.85580 -3.54730 5158 ft 185 kts 163°
2026-05-06 23:17 55.84339 -3.54084 5528 ft 188 kts 162°
2026-05-06 23:17 55.83089 -3.53365 5897 ft 189 kts 162°
2026-05-06 23:17 55.81831 -3.52632 6296 ft 190 kts 162°
2026-05-06 23:18 55.80567 -3.51909 6655 ft 192 kts 163°
2026-05-06 23:18 55.79294 -3.51202 7014 ft 193 kts 163°
2026-05-06 23:18 55.78008 -3.50490 7379 ft 194 kts 163°
2026-05-06 23:18 55.76716 -3.49782 7726 ft 195 kts 163°
2026-05-06 23:19 55.75408 -3.49063 8073 ft 197 kts 164°
2026-05-06 23:19 55.74095 -3.48349 8415 ft 198 kts 164°
2026-05-06 23:19 55.72773 -3.47627 8764 ft 199 kts 164°
2026-05-06 23:19 55.71439 -3.46900 9098 ft 201 kts 164°
2026-05-06 23:20 55.70104 -3.46163 9440 ft 202 kts 164°
2026-05-06 23:20 55.68749 -3.45433 9774 ft 203 kts 164°
2026-05-06 23:20 55.67387 -3.44693 10084 ft 205 kts 165°
2026-05-06 23:20 55.66040 -3.43965 10372 ft 206 kts 165°
2026-05-06 23:21 55.64668 -3.43220 10659 ft 206 kts 165°
2026-05-06 23:21 55.63290 -3.42472 10933 ft 208 kts 165°
2026-05-06 23:21 55.61906 -3.41721 11219 ft 208 kts 165°
2026-05-06 23:21 55.60514 -3.40970 11507 ft 209 kts 165°
2026-05-06 23:22 55.59121 -3.40213 11795 ft 210 kts 165°
2026-05-06 23:22 55.57719 -3.39456 12080 ft 211 kts 165°
2026-05-06 23:22 55.56315 -3.38694 12361 ft 212 kts 165°
2026-05-06 23:22 55.54887 -3.38450 12577 ft 206 kts 199°
2026-05-06 23:23 55.53762 -3.39845 12830 ft 197 kts 242°
2026-05-06 23:23 55.53365 -3.42112 13094 ft 194 kts 261°
2026-05-06 23:23 55.53082 -3.44444 13384 ft 195 kts 259°
2026-05-06 23:23 55.52772 -3.46780 13657 ft 195 kts 258°
2026-05-06 23:24 55.52535 -3.48324 13846 ft 196 kts 255°
2026-05-06 23:24 55.52078 -3.50601 14095 ft 198 kts 250°
2026-05-06 23:24 55.51492 -3.52802 14323 ft 199 kts 245°
2026-05-06 23:24 55.50788 -3.54916 14560 ft 200 kts 240°
2026-05-06 23:25 55.50020 -3.56967 14786 ft 201 kts 239°
2026-05-06 23:25 55.49234 -3.59001 15007 ft 201 kts 239°
2026-05-06 23:25 55.48447 -3.61049 15229 ft 202 kts 239°
2026-05-06 23:25 55.47656 -3.63088 15465 ft 202 kts 239°
2026-05-06 23:26 55.46865 -3.65137 15696 ft 202 kts 239°
2026-05-06 23:26 55.46084 -3.67167 15897 ft 203 kts 239°
2026-05-06 23:26 55.45301 -3.69229 16115 ft 203 kts 239°
2026-05-06 23:26 55.44517 -3.71301 16321 ft 203 kts 239°
2026-05-06 23:27 55.43733 -3.73372 16522 ft 204 kts 239°
2026-05-06 23:27 55.42947 -3.75451 16710 ft 204 kts 239°
2026-05-06 23:27 55.42158 -3.77535 16905 ft 205 kts 239°
2026-05-06 23:27 55.41366 -3.79621 17104 ft 205 kts 239°
2026-05-06 23:28 55.40576 -3.81709 17322 ft 205 kts 239°
2026-05-06 23:28 55.39782 -3.83807 17515 ft 206 kts 239°
2026-05-06 23:28 55.38987 -3.85898 17722 ft 206 kts 239°
2026-05-06 23:28 55.38187 -3.88001 17877 ft 209 kts 239°
2026-05-06 23:29 55.37371 -3.90151 17944 ft 214 kts 239°
2026-05-06 23:29 55.36531 -3.92362 17972 ft 220 kts 239°
2026-05-06 23:29 55.35668 -3.94632 17984 ft 226 kts 239°
2026-05-06 23:29 55.34784 -3.96951 17993 ft 231 kts 239°
2026-05-06 23:30 55.33882 -3.99311 17992 ft 235 kts 239°
2026-05-06 23:30 55.32965 -4.01702 17994 ft 238 kts 239°
2026-05-06 23:30 55.32039 -4.04130 17994 ft 241 kts 239°
2026-05-06 23:30 55.31100 -4.06579 17990 ft 243 kts 239°
2026-05-06 23:31 55.30153 -4.09045 17984 ft 244 kts 239°
2026-05-06 23:31 55.29198 -4.11534 17988 ft 245 kts 239°
2026-05-06 23:31 55.28243 -4.14018 17986 ft 246 kts 239°
2026-05-06 23:31 55.27287 -4.16509 17984 ft 246 kts 239°
2026-05-06 23:32 55.26329 -4.18999 17992 ft 247 kts 239°
2026-05-06 23:32 55.25368 -4.21494 17977 ft 247 kts 239°
2026-05-06 23:32 55.24409 -4.23986 17993 ft 247 kts 238°
2026-05-06 23:32 55.23455 -4.26456 17989 ft 248 kts 238°
2026-05-06 23:33 55.22473 -4.28995 17988 ft 248 kts 238°
2026-05-06 23:33 55.21520 -4.31467 17982 ft 248 kts 238°
2026-05-06 23:33 55.20551 -4.33971 17978 ft 248 kts 238°
2026-05-06 23:33 55.19582 -4.36465 17994 ft 247 kts 239°
2026-05-06 23:34 55.18616 -4.38963 17990 ft 248 kts 238°
2026-05-06 23:34 55.17641 -4.41472 17984 ft 249 kts 238°
2026-05-06 23:34 55.16669 -4.43971 17989 ft 249 kts 238°
2026-05-06 23:34 55.15694 -4.46481 17981 ft 249 kts 238°
2026-05-06 23:35 55.14719 -4.48979 17982 ft 249 kts 238°
2026-05-06 23:35 55.13745 -4.51483 17987 ft 249 kts 238°
2026-05-06 23:35 55.12770 -4.53976 17986 ft 249 kts 238°
2026-05-06 23:35 55.11789 -4.56487 17979 ft 249 kts 238°
2026-05-06 23:36 55.10810 -4.58989 17978 ft 249 kts 238°
2026-05-06 23:36 55.09834 -4.61482 17981 ft 249 kts 238°
2026-05-06 23:36 55.08856 -4.63981 17982 ft 249 kts 238°
2026-05-06 23:36 55.07878 -4.66473 17978 ft 249 kts 238°
2026-05-06 23:37 55.06902 -4.68954 17978 ft 249 kts 238°
2026-05-06 23:37 55.05926 -4.71447 17980 ft 249 kts 238°
2026-05-06 23:37 55.04962 -4.73898 17978 ft 249 kts 238°
2026-05-06 23:37 55.03981 -4.76383 17974 ft 248 kts 238°
2026-05-06 23:38 55.03003 -4.78862 17982 ft 248 kts 238°
2026-05-06 23:38 55.02026 -4.81344 17976 ft 248 kts 238°
2026-05-06 23:38 55.01048 -4.83821 17977 ft 248 kts 238°
2026-05-06 23:38 55.00069 -4.86293 17977 ft 249 kts 238°
2026-05-06 23:39 54.99083 -4.88779 17973 ft 249 kts 238°
2026-05-06 23:39 54.98104 -4.91254 17977 ft 249 kts 238°
2026-05-06 23:39 54.97118 -4.93737 17975 ft 249 kts 238°
2026-05-06 23:39 54.96137 -4.96210 17975 ft 248 kts 238°
2026-05-06 23:40 54.95154 -4.98682 17991 ft 248 kts 238°
2026-05-06 23:40 54.94171 -5.01157 17975 ft 249 kts 238°
2026-05-06 23:40 54.93187 -5.03635 17972 ft 249 kts 238°
2026-05-06 23:40 54.92202 -5.06105 17973 ft 249 kts 238°
2026-05-06 23:41 54.91214 -5.08578 17974 ft 249 kts 238°
2026-05-06 23:41 54.90229 -5.11045 17979 ft 249 kts 238°
2026-05-06 23:41 54.89241 -5.13515 17968 ft 249 kts 238°
2026-05-06 23:41 54.88254 -5.15979 17979 ft 247 kts 239°
2026-05-06 23:42 54.87569 -5.18677 17942 ft 246 kts 253°
2026-05-06 23:42 54.87062 -5.21632 17359 ft 266 kts 255°
2026-05-06 23:42 54.86532 -5.24814 16747 ft 283 kts 254°
2026-05-06 23:42 54.85918 -5.28101 16155 ft 286 kts 252°
2026-05-06 23:43 54.85261 -5.31303 15539 ft 284 kts 251°
2026-05-06 23:43 54.84586 -5.34510 14944 ft 281 kts 251°
2026-05-06 23:43 54.83933 -5.37697 14356 ft 279 kts 251°
2026-05-06 23:43 54.83288 -5.40850 13759 ft 277 kts 251°
2026-05-06 23:44 54.82651 -5.43974 13111 ft 274 kts 251°
2026-05-06 23:44 54.82015 -5.47079 12442 ft 272 kts 251°
2026-05-06 23:44 54.81389 -5.50125 11908 ft 265 kts 251°
2026-05-06 23:44 54.80777 -5.53105 11393 ft 259 kts 251°
2026-05-06 23:45 54.80178 -5.56017 10885 ft 254 kts 251°
2026-05-06 23:45 54.79589 -5.58879 10387 ft 250 kts 251°
2026-05-06 23:45 54.79006 -5.61701 9905 ft 247 kts 251°
2026-05-06 23:45 54.78431 -5.64480 9452 ft 242 kts 251°
2026-05-06 23:46 54.77878 -5.67154 9000 ft 238 kts 251°
2026-05-06 23:46 54.77318 -5.69850 8551 ft 235 kts 250°
2026-05-06 23:46 54.76769 -5.72493 8109 ft 233 kts 250°
2026-05-06 23:46 54.76223 -5.75124 7686 ft 231 kts 250°
2026-05-06 23:47 54.75684 -5.77714 7329 ft 226 kts 249°
2026-05-06 23:47 54.75157 -5.80247 6966 ft 222 kts 249°
2026-05-06 23:47 54.74632 -5.82761 6628 ft 220 kts 249°
2026-05-06 23:47 54.74115 -5.85231 6275 ft 218 kts 249°
2026-05-06 23:48 54.73598 -5.87697 5894 ft 216 kts 248°
2026-05-06 23:48 54.73086 -5.90123 5535 ft 213 kts 247°
2026-05-06 23:48 54.72204 -5.92074 5165 ft 205 kts 214°
2026-05-06 23:48 54.70957 -5.93131 4856 ft 201 kts 189°
2026-05-06 23:49 54.69619 -5.92779 4685 ft 194 kts 161°
2026-05-06 23:49 54.68539 -5.91460 4490 ft 193 kts 124°
2026-05-06 23:49 54.68234 -5.89220 4310 ft 192 kts 92°
2026-05-06 23:49 54.68243 -5.86906 4130 ft 192 kts 91°
2026-05-06 23:50 54.68288 -5.84614 4033 ft 187 kts 90°
2026-05-06 23:50 54.69026 -5.80684 3979 ft 175 kts 31°
2026-05-06 23:50 54.70165 -5.80276 3976 ft 165 kts
2026-05-06 23:51 54.71297 -5.80214 3967 ft 160 kts
2026-05-06 23:51 54.72392 -5.80195 3961 ft 154 kts 353°
2026-05-06 23:51 54.73265 -5.81022 3976 ft 145 kts 309°
2026-05-06 23:51 54.74044 -5.82343 3984 ft 170 kts 314°
2026-05-06 23:52 54.74703 -5.84122 3987 ft 189 kts 293°
2026-05-06 23:52 54.75008 -5.86363 3977 ft 191 kts 260°
2026-05-06 23:52 54.74659 -5.88524 3971 ft 185 kts 248°
2026-05-06 23:52 54.74152 -5.90550 3937 ft 184 kts 242°
2026-05-06 23:53 54.73580 -5.92520 3751 ft 181 kts 241°
2026-05-06 23:53 54.73008 -5.94457 3514 ft 181 kts 242°
2026-05-06 23:53 54.72483 -5.96450 3269 ft 183 kts 244°
2026-05-06 23:53 54.71969 -5.98443 3025 ft 180 kts 243°
2026-05-06 23:54 54.71441 -6.00393 2772 ft 178 kts 242°
2026-05-06 23:54 54.70920 -6.02316 2529 ft 175 kts 242°
2026-05-06 23:54 54.70419 -6.04196 2263 ft 170 kts 242°
2026-05-06 23:54 54.69927 -6.06041 2027 ft 166 kts 242°
2026-05-06 23:55 54.69446 -6.07831 1791 ft 163 kts 241°
2026-05-06 23:55 54.68976 -6.09572 1572 ft 157 kts 241°
2026-05-06 23:55 54.68530 -6.11226 1370 ft 146 kts 242°
2026-05-06 23:55 54.68110 -6.12780 1171 ft 137 kts 242°
2026-05-06 23:56 54.67733 -6.14190 983 ft 122 kts 243°
2026-05-06 23:56 54.67392 -6.15475 821 ft 116 kts 242°
2026-05-06 23:56 54.67057 -6.16708 661 ft 114 kts 242°
2026-05-06 23:56 54.66713 -6.17968 507 ft 115 kts 242°
2026-05-06 23:57 54.66380 -6.19223 368 ft 116 kts 242°
2026-05-06 23:57 54.66055 -6.20440 270 ft 109 kts 242°
2026-05-06 23:57 54.65878 -6.21081 268 ft 23 kts 246°
2026-05-06 23:57 54.65869 -6.21313 268 ft 19 kts 309°
2026-05-06 23:58 54.65979 -6.21378 268 ft 16 kts 22°
2026-05-06 23:58 54.66025 -6.21239 268 ft 13 kts 61°
2026-05-06 23:58 54.66076 -6.21221 268 ft 8 kts 334°
2026-05-06 23:58 54.66137 -6.21271 268 ft 11 kts 335°
2026-05-06 23:59 54.66205 -6.21306 268 ft 7 kts 28°
2026-05-06 23:59 54.66229 -6.21231 268 ft 5 kts 64°
2026-05-06 23:59 54.66230 -6.21227 268 ft 0 kts 64°